Wind_Speed
10 10 11 13 14 16 18 17 13 13 11 11 11 10 13 11 10 11 11 10 7 5 4 3 4 1 0 1 1 2 2 5 7 6 6 7 7 7 8 8 8 9 10 11 10 9 9 8 8
11 10 11 11 15 19 20 18 18 17 14 13 12 11 14 14 13 12 13 13 9 8 7 6 5 3 2 1 1 2 2 3 6 5 6 6 6 7 6 6 8 9 10 11 9 9 9 9 9
12 9 9 10 11 19 22 22 22 23 19 16 18 14 12 16 19 16 16 16 14 10 10 10 7 3 3 3 3 3 3 4 7 7 7 7 7 7 6 7 7 8 9 9 8 8 10 10 10
16 11 8 7 9 18 23 25 25 26 23 17 17 19 16 14 20 23 23 23 18 13 12 11 9 5 5 4 4 3 2 3 6 8 8 8 8 7 6 7 7 8 8 8 6 7 9 10 11
19 12 8 5 10 16 21 24 26 26 23 19 17 13 15 20 26 26 25 23 22 14 15 12 10 7 7 6 4 3 2 3 5 8 8 9 9 8 6 6 6 7 6 5 5 7 8 8 9
20 17 9 7 14 18 21 23 23 24 22 20 15 15 18 22 24 26 27 28 23 16 16 15 11 7 8 8 6 6 5 5 6 9 10 10 11 10 6 6 6 6 5 5 4 7 7 6 7
19 20 14 10 15 20 22 22 20 20 20 20 16 14 17 15 20 14 11 17 20 16 17 15 12 10 10 9 7 8 8 8 9 10 12 12 11 9 7 6 6 6 5 5 5 5 6 6 6
21 22 18 11 13 19 22 23 18 16 17 19 19 15 19 16 14 8 13 10 12 15 14 14 13 11 10 11 10 9 9 10 12 12 12 11 11 10 9 8 8 8 7 6 5 4 4 5 5
23 22 18 14 13 18 23 22 18 14 14 15 17 20 14 16 18 12 5 6 10 13 15 17 15 13 11 11 10 8 10 11 13 14 13 12 12 12 11 10 9 10 10 8 6 5 4 4 3
22 20 20 21 20 21 24 19 15 11 10 11 14 17 14 12 20 18 6 10 10 15 17 19 17 14 13 11 7 6 8 9 11 14 16 15 15 14 14 13 12 13 13 11 10 9 8 7 6
20 20 26 27 25 21 21 19 16 10 7 12 15 16 10 13 16 18 21 12 12 12 21 21 21 18 15 13 10 7 6 7 8 11 16 18 18 17 16 16 15 16 14 13 13 12 11 10 8
20 23 26 28 25 24 24 23 22 13 9 10 13 16 14 5 7 4 19 23 22 15 21 23 23 22 17 15 13 10 7 6 8 11 15 18 18 18 18 17 18 17 16 15 14 13 12 11 10
19 22 22 25 24 25 26 26 25 16 17 13 12 19 13 9 6 5 6 11 13 14 23 25 25 24 20 17 14 14 13 11 10 12 16 18 18 19 20 20 20 19 19 18 16 15 14 12 10
21 22 24 26 29 28 28 28 22 18 21 14 15 22 27 23 19 13 14 14 15 15 24 28 29 29 24 20 18 18 17 17 18 16 18 20 21 21 22 22 22 21 21 19 17 17 16 14 12
25 25 27 31 31 30 32 29 24 31 24 17 18 23 32 31 24 25 24 20 18 24 31 33 32 31 28 25 22 20 18 19 20 20 20 22 24 24 24 23 23 23 23 20 18 18 18 17 16
29 28 30 31 32 34 35 29 32 31 27 24 22 21 24 29 29 27 27 23 21 28 32 35 35 33 33 30 25 23 23 23 24 24 23 23 25 26 26 26 26 25 24 21 21 20 20 18 17
29 29 30 31 34 36 35 34 34 33 32 28 24 26 26 28 31 29 29 29 28 27 35 35 35 34 33 33 29 24 23 24 26 27 27 26 26 27 27 27 27 26 27 26 24 24 22 21 21
29 28 29 30 32 34 35 34 32 32 31 29 24 26 29 30 31 33 34 32 35 33 37 38 40 40 39 37 33 29 24 26 28 27 29 29 29 29 29 28 30 29 30 30 27 27 26 25 25
25 25 28 29 29 31 32 33 31 31 29 27 25 24 27 31 32 36 39 38 34 35 39 41 41 41 45 39 36 33 31 29 30 29 30 30 33 34 34 32 31 31 32 31 30 30 29 28 28
23 23 25 28 29 28 30 32 32 32 32 31 28 28 28 30 30 30 36 40 38 37 42 46 45 44 43 43 43 42 39 36 37 36 36 37 35 38 37 35 35 35 35 35 35 35 34 34 34
27 28 26 27 28 29 30 33 36 36 37 37 34 31 33 32 33 34 37 38 41 41 43 49 52 48 52 51 52 50 44 45 43 40 39 40 39 38 40 41 39 40 41 40 39 39 40 40 41
24 26 27 29 31 33 33 36 36 37 38 40 41 40 36 39 41 40 41 42 43 44 45 44 54 57 57 62 56 52 49 49 48 46 45 46 43 43 42 41 43 46 46 46 45 45 47 46 48
24 25 26 27 29 30 34 36 39 40 40 39 39 39 37 35 44 48 48 50 49 50 51 55 56 57 65 62 56 56 57 55 56 55 56 52 50 50 49 47 48 49 50 52 51 50 51 51 53
21 20 19 18 20 25 28 31 35 37 37 38 38 37 36 37 38 43 50 52 52 52 55 56 61 61 59 57 55 60 59 57 61 55 62 57 57 55 55 53 53 54 53 52 53 55 56 57 58
21 21 22 23 22 24 24 23 24 28 33 35 36 37 38 40 41 41 44 50 56 58 59 60 60 59 60 59 58 65 58 64 63 50 56 66 64 61 61 61 60 58 55 55 56 59 61 62 60
22 22 22 24 23 23 23 24 24 25 27 29 31 35 39 44 47 47 48 47 52 59 63 60 56 55 57 54 51 49 59 56 59 62 58 62 59 60 65 65 69 64 62 60 61 61 63 65 63
25 27 26 25 26 25 26 26 26 28 29 31 32 34 37 39 42 46 50 55 54 55 58 60 57 53 49 47 50 51 48 48 52 54 60 74 60 66 67 67 64 74 70 68 68 69 65 70 70
27 28 28 29 29 28 27 26 28 30 32 33 33 36 39 42 44 46 49 52 55 60 62 63 63 58 55 54 50 47 55 49 57 60 61 65 66 81 71 65 70 68 80 68 69 69 72 76 72
30 29 28 29 29 29 29 26 26 26 23 24 23 24 29 33 35 38 38 39 48 54 58 64 66 67 62 59 57 56 55 56 57 62 68 63 63 63 76 83 76 75 88 71 65 60 77 72 64
29 30 31 32 32 31 28 25 23 21 19 19 22 25 28 28 29 30 33 37 36 38 47 54 60 62 65 59 60 63 60 65 58 68 56 54 61 61 65 63 64 62 62 64 70 66 58 67 66
Wind_Direction
308 291 258 248 236 238 248 254 243 250 235 255 254 229 253 275 299 291 280 261 254 206 187 214 141 72 15 121 183 194 164 123 109 109 103 101 101 93 86 83 85 81 71 62 66 69 73 82 86
300 299 290 255 243 240 251 264 260 259 249 264 256 250 253 254 279 276 264 256 242 218 202 209 176 133 249 225 255 247 204 135 116 117 118 116 110 99 94 88 81 78 72 69 73 81 80 85 92
287 292 299 296 254 240 248 253 262 265 263 268 266 270 256 252 266 280 272 251 244 239 217 205 185 159 213 250 259 246 211 149 141 144 142 138 132 123 103 87 83 74 71 76 85 91 95 99 98
266 279 284 297 261 239 243 248 252 264 273 278 281 278 275 273 283 277 274 258 244 242 230 210 193 180 222 232 265 254 237 164 158 156 154 152 152 141 109 91 84 77 69 69 81 99 106 110 112
252 261 279 277 256 244 244 247 251 261 273 281 282 303 311 296 279 277 265 252 252 240 232 219 210 195 215 215 242 254 249 223 184 173 163 163 164 152 131 115 102 93 87 91 103 113 121 121 123
251 245 252 253 241 240 246 246 250 261 270 276 283 300 308 309 301 271 255 250 254 232 224 217 212 210 218 210 222 251 257 221 181 176 171 173 169 167 151 133 130 114 125 124 138 138 134 131 125
252 239 234 243 253 255 249 255 253 262 268 272 281 313 329 314 320 296 244 248 247 228 222 216 212 209 226 232 225 243 236 217 197 180 180 180 176 178 175 146 154 150 156 163 176 143 127 120 112
250 235 230 244 255 255 256 259 261 266 268 270 277 289 323 325 348 326 259 271 276 239 234 223 210 207 235 249 239 235 232 214 209 198 186 186 192 200 206 183 181 182 175 190 192 176 162 135 149
250 235 229 244 246 241 249 256 267 275 277 273 268 275 303 317 325 315 184 275 281 236 226 223 214 213 226 245 243 231 228 223 218 210 206 205 212 216 220 210 203 203 195 195 203 200 201 172 185
250 236 224 241 244 241 251 268 286 308 314 311 282 282 264 294 303 293 304 227 260 231 223 221 218 221 226 227 226 216 220 222 220 217 214 213 220 222 225 220 215 216 210 202 202 196 198 205 205
249 233 226 234 246 256 266 275 276 282 309 304 291 290 292 282 280 276 264 223 255 238 230 224 226 229 230 229 225 223 225 217 216 220 219 217 222 224 224 225 222 223 218 213 207 204 202 208 215
250 238 234 239 245 258 266 269 274 271 276 269 280 291 312 291 229 220 258 221 218 217 224 230 235 236 238 237 234 238 241 244 229 221 222 219 223 222 221 228 232 224 222 221 219 216 216 216 220
252 245 241 244 247 252 257 259 262 273 264 259 267 277 287 160 104 137 208 245 254 230 220 231 237 238 238 237 238 246 250 250 248 234 229 226 224 223 226 235 236 228 227 226 220 221 223 225 226
245 242 238 242 244 245 251 256 260 252 244 235 237 265 263 247 257 247 246 244 228 228 224 236 234 237 233 232 235 237 242 246 248 243 234 231 227 226 229 233 232 231 227 226 226 221 220 223 223
248 243 241 242 248 254 257 262 261 255 257 249 228 240 252 252 246 243 233 245 243 213 224 234 228 239 237 230 231 238 239 240 239 238 233 229 231 230 231 226 225 228 231 227 222 220 217 215 214
255 252 250 250 251 255 257 263 266 269 268 263 250 242 246 257 258 248 251 248 257 235 218 223 224 231 238 237 227 233 240 235 229 230 231 231 230 230 232 227 223 223 227 221 220 219 217 218 221
261 258 256 257 258 262 265 266 267 268 270 268 256 249 241 251 261 257 255 249 254 247 227 222 222 224 231 235 237 236 242 244 240 235 232 230 231 231 231 235 230 225 225 222 221 223 221 221 227
269 267 265 262 263 263 265 265 265 266 269 268 259 250 245 242 250 256 252 245 255 258 231 228 222 217 225 234 241 247 248 251 246 243 240 239 235 236 233 231 234 231 228 228 226 229 231 232 237
271 272 271 270 266 266 267 267 264 261 257 258 259 252 251 248 244 248 251 250 248 250 237 230 232 225 224 228 238 246 250 249 249 246 244 241 240 238 238 234 236 238 237 234 233 234 238 241 244
272 273 271 273 270 264 260 258 257 257 258 256 249 243 242 244 248 256 259 253 248 248 237 232 232 231 233 232 230 230 231 235 242 243 243 247 241 239 237 238 238 240 241 240 240 242 242 244 248
269 268 266 267 267 267 262 256 251 250 252 253 253 240 241 244 239 249 258 259 256 247 241 236 235 235 239 233 233 234 230 228 236 245 250 251 249 244 239 238 239 240 241 242 242 246 247 248 250
278 277 274 275 271 265 259 260 255 256 256 256 256 253 245 237 234 240 245 251 254 250 246 244 239 239 238 242 237 237 234 233 230 234 239 243 245 246 243 242 243 243 243 244 245 246 250 252 253
279 280 280 279 278 274 269 267 266 262 259 259 259 260 257 250 236 235 239 245 249 250 255 251 242 240 235 236 244 239 241 236 239 236 234 239 242 246 245 241 241 242 243 244 244 246 248 251 254
283 283 281 280 280 277 277 270 270 271 271 268 265 264 262 255 248 241 244 247 250 250 252 258 264 259 240 242 239 242 236 241 240 245 235 239 237 239 243 245 244 244 246 247 247 246 247 249 252
291 296 300 297 292 288 288 282 279 275 272 271 270 270 269 265 260 253 245 247 251 254 255 259 262 269 273 275 250 238 238 239 233 250 242 240 239 239 240 241 240 241 241 243 244 245 247 250 250
287 286 285 285 288 291 291 289 284 279 277 276 274 273 272 271 268 263 260 254 251 255 259 261 263 265 269 272 273 258 234 240 236 252 248 249 245 245 248 246 243 239 241 241 241 244 247 248 248
287 288 288 287 286 284 283 284 282 280 277 278 280 281 281 279 274 271 267 261 259 258 259 265 267 263 263 265 268 263 254 270 251 259 254 258 246 249 251 249 257 247 245 242 240 243 247 248 244
287 289 290 289 290 289 288 288 288 288 287 287 288 290 290 289 284 277 270 264 261 256 256 258 261 262 263 263 263 262 265 258 262 264 247 256 255 249 246 242 249 256 256 247 252 248 245 252 250
290 290 290 288 288 288 287 287 287 289 295 302 309 313 311 306 300 295 289 281 268 261 257 255 257 259 258 259 262 263 261 259 255 258 263 268 261 251 249 253 247 253 254 246 249 258 253 245 240
290 291 289 287 286 282 282 284 282 288 291 295 305 307 314 312 315 319 310 293 286 274 263 259 258 259 261 259 258 261 263 262 259 268 265 260 265 264 255 255 248 241 241 253 251 258 252 242 240
Height
5902 5902 5903 5904 5908 5905 5904 5906 5908 5909 5910 5909 5910 5911 5910 5911 5911 5912 5909 5908 5908 5908 5908 5910 5909 5910 5911 5912 5914 5913 5912 5910 5910 5910 5911 5911 5912 5913 5913 5914 5914 5914 5914 5914 5914 5915 5916 5916 5916
5900 5901 5901 5902 5904 5903 5903 5904 5904 5905 5907 5907 5909 5910 5909 5909 5908 5908 5907 5907 5906 5906 5906 5908 5909 5909 5911 5912 5913 5913 5912 5911 5910 5910 5910 5911 5913 5914 5914 5915 5915 5915 5915 5915 5915 5916 5917 5918 5917
5898 5899 5900 5900 5901 5901 5900 5900 5900 5901 5904 5906 5906 5907 5908 5908 5907 5908 5907 5905 5906 5905 5905 5906 5907 5907 5909 5910 5911 5912 5912 5910 5910 5910 5910 5911 5913 5914 5915 5915 5915 5915 5916 5916 5916 5917 5918 5919 5919
5895 5897 5898 5898 5898 5897 5897 5897 5897 5897 5899 5903 5903 5905 5907 5907 5907 5907 5905 5905 5905 5904 5904 5904 5904 5905 5908 5909 5910 5910 5911 5910 5910 5910 5910 5910 5913 5915 5916 5915 5915 5915 5917 5917 5917 5918 5919 5920 5920
5892 5894 5895 5895 5894 5894 5894 5894 5895 5895 5897 5899 5900 5902 5904 5903 5902 5901 5901 5903 5904 5902 5903 5903 5904 5903 5905 5906 5908 5909 5909 5909 5909 5910 5910 5910 5911 5914 5915 5915 5914 5915 5917 5918 5918 5919 5920 5920 5920
5887 5890 5892 5892 5890 5889 5890 5891 5893 5893 5894 5895 5898 5900 5900 5898 5897 5893 5895 5899 5901 5900 5901 5901 5902 5903 5903 5903 5904 5906 5907 5907 5908 5908 5908 5909 5910 5911 5913 5914 5914 5915 5917 5917 5917 5918 5920 5920 5921
5882 5885 5888 5889 5887 5885 5886 5887 5891 5891 5892 5892 5895 5897 5897 5893 5892 5892 5895 5898 5901 5899 5898 5898 5900 5901 5902 5902 5900 5903 5904 5905 5907 5907 5908 5908 5909 5910 5912 5913 5914 5914 5915 5915 5915 5916 5918 5920 5920
5877 5880 5884 5885 5885 5883 5882 5883 5888 5890 5890 5890 5892 5893 5892 5891 5892 5891 5893 5896 5898 5898 5899 5898 5899 5899 5900 5900 5899 5899 5901 5902 5904 5905 5905 5906 5907 5908 5909 5912 5912 5914 5914 5914 5914 5915 5916 5918 5918
5872 5875 5879 5881 5879 5878 5878 5880 5884 5887 5887 5888 5889 5889 5891 5889 5890 5890 5890 5892 5894 5895 5896 5898 5898 5897 5896 5897 5897 5896 5898 5899 5901 5902 5904 5904 5905 5905 5907 5909 5910 5912 5912 5914 5914 5915 5915 5916 5917
5867 5871 5874 5873 5872 5873 5874 5878 5882 5885 5885 5886 5887 5887 5888 5887 5887 5888 5888 5889 5891 5892 5895 5896 5897 5896 5894 5895 5894 5894 5896 5897 5898 5899 5900 5901 5902 5902 5904 5906 5907 5908 5910 5912 5912 5913 5914 5914 5915
5862 5866 5866 5867 5868 5870 5871 5873 5877 5881 5883 5884 5884 5883 5886 5885 5884 5884 5885 5887 5888 5888 5891 5893 5895 5895 5893 5893 5893 5893 5894 5894 5895 5897 5898 5898 5899 5899 5900 5903 5904 5906 5907 5909 5909 5910 5912 5913 5914
5857 5859 5862 5862 5865 5867 5867 5867 5870 5877 5880 5880 5880 5880 5882 5882 5880 5880 5882 5882 5881 5884 5888 5891 5892 5893 5891 5891 5891 5892 5892 5892 5893 5894 5895 5895 5897 5897 5897 5899 5901 5903 5904 5906 5908 5909 5910 5911 5912
5853 5854 5857 5858 5860 5861 5862 5862 5863 5871 5873 5875 5876 5876 5880 5879 5878 5879 5880 5882 5883 5881 5884 5887 5889 5888 5887 5887 5888 5888 5889 5890 5891 5891 5893 5894 5894 5896 5896 5896 5897 5900 5900 5902 5904 5906 5907 5908 5909
5847 5848 5849 5851 5850 5852 5853 5854 5860 5862 5864 5870 5871 5872 5873 5875 5874 5875 5875 5876 5875 5875 5879 5882 5883 5883 5883 5883 5883 5882 5883 5884 5886 5888 5888 5891 5891 5891 5893 5893 5893 5896 5897 5898 5901 5903 5903 5905 5906
5842 5844 5844 5843 5845 5847 5848 5852 5856 5850 5858 5864 5864 5862 5861 5861 5866 5867 5867 5867 5867 5865 5869 5876 5877 5877 5878 5878 5878 5878 5878 5880 5881 5882 5884 5885 5887 5887 5888 5889 5890 5892 5894 5895 5897 5899 5900 5901 5902
5838 5840 5840 5842 5841 5840 5842 5845 5845 5847 5852 5856 5860 5860 5858 5856 5858 5861 5861 5862 5862 5862 5863 5866 5868 5871 5873 5874 5872 5872 5874 5874 5875 5876 5878 5881 5881 5882 5883 5883 5885 5887 5889 5890 5892 5895 5896 5897 5897
5831 5833 5835 5836 5835 5836 5838 5840 5839 5840 5843 5846 5851 5853 5853 5853 5852 5853 5855 5855 5856 5859 5858 5858 5860 5864 5866 5868 5867 5867 5868 5870 5872 5872 5873 5876 5877 5877 5879 5880 5881 5881 5883 5884 5885 5887 5889 5891 5893
5827 5828 5829 5830 5831 5831 5831 5833 5833 5833 5835 5837 5842 5844 5846 5846 5847 5847 5848 5849 5849 5851 5853 5851 5851 5852 5856 5858 5861 5862 5863 5866 5868 5869 5869 5871 5873 5874 5873 5874 5876 5876 5877 5879 5879 5882 5883 5884 5887
5823 5823 5823 5824 5825 5825 5825 5825 5827 5827 5829 5830 5832 5835 5837 5840 5840 5838 5838 5839 5841 5841 5845 5846 5847 5848 5845 5849 5853 5855 5857 5858 5861 5862 5864 5864 5865 5867 5868 5868 5870 5871 5872 5873 5874 5875 5876 5878 5880
5817 5819 5818 5818 5818 5820 5819 5818 5819 5820 5821 5824 5826 5827 5829 5830 5831 5832 5832 5831 5831 5832 5833 5836 5840 5842 5843 5842 5840 5840 5844 5848 5851 5853 5854 5856 5858 5860 5861 5862 5863 5865 5866 5866 5867 5868 5869 5870 5871
5810 5811 5812 5812 5812 5813 5814 5814 5813 5813 5814 5815 5817 5821 5822 5824 5824 5824 5824 5824 5824 5826 5826 5827 5829 5831 5833 5833 5831 5830 5833 5834 5837 5844 5847 5849 5850 5853 5853 5853 5855 5857 5858 5859 5860 5861 5862 5863 5863
5804 5804 5804 5804 5804 5804 5805 5805 5805 5806 5807 5807 5808 5810 5813 5815 5816 5816 5816 5817 5818 5819 5820 5820 5818 5817 5819 5819 5817 5819 5822 5823 5826 5831 5833 5835 5838 5841 5844 5845 5847 5848 5849 5850 5851 5852 5853 5854 5853
5798 5797 5797 5796 5795 5795 5794 5795 5794 5795 5796 5797 5798 5799 5801 5803 5805 5806 5806 5806 5807 5807 5807 5806 5802 5802 5803 5804 5806 5807 5808 5811 5813 5814 5818 5820 5824 5828 5830 5832 5834 5836 5838 5838 5840 5841 5842 5842 5842
5792 5792 5791 5790 5788 5787 5786 5787 5784 5784 5785 5785 5786 5787 5788 5789 5792 5794 5795 5794 5793 5793 5792 5791 5786 5788 5788 5787 5791 5788 5783 5797 5801 5803 5803 5806 5810 5812 5816 5819 5822 5824 5825 5827 5828 5828 5829 5829 5829
5786 5785 5784 5784 5782 5780 5779 5778 5776 5774 5774 5774 5774 5775 5775 5776 5777 5779 5781 5781 5780 5778 5778 5776 5776 5776 5775 5774 5780 5778 5779 5784 5785 5785 5788 5791 5794 5797 5800 5803 5805 5808 5809 5812 5814 5815 5818 5819 5820
5780 5780 5780 5777 5776 5775 5772 5769 5768 5768 5766 5765 5764 5763 5763 5763 5763 5765 5766 5768 5767 5764 5762 5762 5763 5763 5763 5762 5763 5767 5768 5771 5773 5762 5768 5775 5776 5780 5784 5785 5787 5789 5792 5795 5798 5801 5804 5806 5807
5773 5772 5772 5770 5769 5768 5766 5763 5761 5759 5759 5758 5756 5754 5752 5751 5750 5750 5751 5752 5754 5752 5749 5746 5746 5748 5751 5752 5753 5755 5756 5756 5760 5757 5762 5761 5765 5760 5767 5770 5771 5769 5774 5778 5780 5781 5784 5788 5791
5766 5765 5763 5761 5760 5759 5757 5755 5752 5750 5749 5748 5746 5743 5740 5737 5736 5734 5734 5734 5734 5736 5736 5734 5732 5734 5735 5737 5739 5742 5745 5744 5746 5747 5745 5747 5750 5751 5750 5750 5756 5756 5756 5758 5764 5768 5772 5773 5775
5757 5756 5755 5753 5752 5750 5749 5747 5744 5740 5738 5736 5735 5733 5730 5727 5725 5721 5719 5717 5716 5716 5717 5718 5719 5719 5722 5725 5726 5727 5729 5731 5732 5733 5734 5733 5733 5732 5735 5739 5741 5739 5742 5747 5750 5753 5756 5759 5762
5750 5747 5746 5744 5743 5741 5740 5740 5736 5734 5731 5729 5728 5726 5724 5721 5717 5714 5710 5707 5704 5701 5700 5700 5702 5703 5704 5710 5713 5713 5715 5717 5718 5717 5717 5717 5719 5721 5723 5726 5730 5729 5731 5735 5736 5741 5743 5745 5747